This is the latest recevied weather packets stored in our database for station/object N8XE-13. If no packets are shown the sender has not sent any weather packets the latest 1 day(s).
| Time | Temp. | Humidity | Pressure | Rain* | Wind** | Luminosity | Snow |
|---|---|---|---|---|---|---|---|
| 1836274761 | 23.33° C | 68% | 1054.7 hPa | 0 mm | 0 m/s | 0 W/m² | - |
| 1836274459 | 23.33° C | 67% | 1054.7 hPa | 0 mm | 0.89 m/s, 336° | 0 W/m² | - |
| 1836274313 | 23.33° C | 67% | 1054.7 hPa | 0 mm | 0.89 m/s, 60° | 0 W/m² | - |
| 1836274157 | 23.33° C | 67% | 1054.7 hPa | 0 mm | 0 m/s | 0 W/m² | - |
| 1778042890 | 9.44° C | 96% | - | 0 mm | 0.45 m/s, 17° | - | - |
| 1778042588 | 9.44° C | 96% | - | 0 mm | 0.45 m/s, 15° | - | - |
| 1778042285 | 9.44° C | 96% | - | 0 mm | 0 m/s | - | - |
| 1778041982 | 9.44° C | 96% | - | 0 mm | 0 m/s | - | - |
| 1778041681 | 9.44° C | 96% | - | 0 mm | 0 m/s | - | - |
| 1778041379 | 9.44° C | 96% | - | 0 mm | 1.34 m/s, 37° | - | - |
| 1778041077 | 9.44° C | 96% | - | 0 mm | 0 m/s | - | - |
| 1778040774 | 9.44° C | 96% | - | 0 mm | 0 m/s | - | - |
| 1778040471 | 10° C | 96% | - | 0 mm | 0 m/s | - | - |
| 1778040168 | 10° C | 96% | - | 0 mm | 0 m/s | - | - |
| 1778039865 | 9.44° C | 96% | - | 0 mm | 0 m/s | - | - |
| 1778039562 | 9.44° C | 96% | - | 0 mm | 0 m/s | - | - |
| 1778039259 | 9.44° C | 96% | - | 0 mm | 0.45 m/s, 3° | - | - |
| 1778038956 | 9.44° C | 96% | - | 1.27 mm | 1.34 m/s, 19° | - | - |
| 1778038653 | 9.44° C | 96% | - | 1.27 mm | 0.45 m/s, 8° | - | - |
| 1778038350 | 9.44° C | 96% | - | 0 mm | 0.89 m/s, 7° | - | - |
| 1778038047 | 10° C | 96% | - | 1.78 mm | 0.45 m/s, 17° | - | - |
| 1778037744 | 10° C | 96% | - | 3.05 mm | 1.79 m/s, 0° | - | - |
| 1778037440 | 10° C | 96% | - | 3.05 mm | 0.45 m/s, 52° | - | - |
| 1778037138 | 10° C | 96% | - | 3.05 mm | 0.45 m/s, 358° | - | - |
| 1778036836 | 10° C | 96% | - | 3.05 mm | 0 m/s | - | - |
* Rain latest hour (hover to see other rain measurements)
** Current wind speed in m/s (hover to see current wind gust speed)